GW1618 Weather Reports


time (UTC)temp
C
wind
direction
speed
KPH
gust
KPH
rain 1hr
cm
rain 24hr
cm
rain mn
cm
humidity
%
barometer
mb
20260503031701 21 126 6.4 11.3 0.00 0.00 0.00 40 1012.0
20260503031159 21 89 6.4 11.3 0.00 0.00 0.00 41 1012.0
20260503030700 21 88 6.4 16.1 0.00 0.00 0.00 41 1012.0
20260503030158 21 117 8.0 16.1 0.00 0.00 0.00 41 1011.8
20260503025707 21 51 9.7 17.7 0.00 0.00 0.00 40 1011.8
20260503025204 22 83 8.0 17.7 0.00 0.00 0.00 40 1011.8
20260503024713 22 46 6.4 16.1 0.00 0.00 0.00 41 1011.8
20260503023654 22 96 8.0 14.5 0.00 0.00 0.00 40 1011.8
20260503022634 22 53 8.0 16.1 0.00 0.00 0.00 40 1011.7
20260503022135 22 76 9.7 17.7 0.00 0.00 0.00 39 1011.7
20260503021630 22 81 11.3 20.9 0.00 0.00 0.00 39 1011.7
20260503021130 22 112 11.3 20.9 0.00 0.00 0.00 39 1011.7
20260503020633 22 101 9.7 17.7 0.00 0.00 0.00 38 1011.7
20260503020140 22 89 8.0 17.7 0.00 0.00 0.00 38 1011.6
20260503015645 22 134 9.7 17.7 0.00 0.00 0.00 38 1011.6
20260503015127 22 119 8.0 17.7 0.00 0.00 0.00 38 1011.6
20260503014615 22 109 9.7 17.7 0.00 0.00 0.00 39 1011.6
20260503014109 23 108 9.7 17.7 0.00 0.00 0.00 38 1011.6
20260503013609 23 109 8.0 17.7 0.00 0.00 0.00 38 1011.6
20260503013111 23 80 8.0 17.7 0.00 0.00 0.00 40 1011.7
20260503012613 23 78 8.0 16.1 0.00 0.00 0.00 39 1011.7
20260503012106 23 112 8.0 16.1 0.00 0.00 0.00 39 1011.7
20260503011611 23 117 9.7 19.3 0.00 0.00 0.00 40 1011.6
20260503011110 23 80 9.7 19.3 0.00 0.00 0.00 40 1011.6
20260503010606 23 73 8.0 14.5 0.00 0.00 0.00 40 1011.6
20260503010348 23 84 8.0 17.7 0.00 0.00 0.00 40 1011.8
20260503005601 23 41 9.7 17.7 0.00 0.00 0.00 40 1011.8
20260503005102 23 84 9.7 17.7 0.00 0.00 0.00 39 1011.8
20260503004602 23 107 8.0 17.7 0.00 0.00 0.00 39 1011.8
20260503004100 23 96 8.0 14.5 0.00 0.00 0.00 39 1011.8
20260503003604 23 111 6.4 12.9 0.00 0.00 0.00 40 1011.8
20260503003105 23 145 6.4 12.9 0.00 0.00 0.00 39 1011.8
20260503002605 22 104 8.0 16.1 0.00 0.00 0.00 41 1011.8
20260503002100 22 100 11.3 17.7 0.00 0.00 0.00 41 1011.8
20260503001845 22 67 9.7 17.7 0.00 0.00 0.00 41 1011.9
20260503001102 22 98 9.7 17.7 0.00 0.00 0.00 42 1011.9
20260503000602 22 70 9.7 16.1 0.00 0.00 0.00 42 1011.9
20260503000103 22 63 8.0 16.1 0.00 0.00 0.00 42 1012.0
20260502235603 22 48 8.0 16.1 0.00 0.00 0.00 43 1012.0
20260502235102 22 88 11.3 19.3 0.00 0.00 0.00 43 1012.3
20260502234606 22 65 9.7 19.3 0.00 0.00 0.00 43 1012.3
20260502234101 22 73 8.0 14.5 0.00 0.00 0.00 45 1012.3
20260502233850 22 115 6.4 14.5 0.00 0.00 0.00 44 1012.6
20260502232545 22 55 6.4 14.5 0.00 0.00 0.00 45 1012.6
20260502232042 22 121 9.7 17.7 0.00 0.00 0.00 48 1012.7
20260502231538 22 4 11.3 17.7 0.00 0.00 0.00 48 1012.7
20260502231038 21 351 9.7 17.7 0.00 0.00 0.00 50 1012.7
20260502230822 21 353 8.0 12.9 0.00 0.00 0.00 52 1012.9
20260502230039 21 359 9.7 14.5 0.00 0.00 0.00 50 1012.9
20260502225540 21 4 8.0 14.5 0.00 0.00 0.00 51 1012.9
20260502225039 21 15 6.4 11.3 0.00 0.00 0.00 51 1013.0
20260502224538 21 352 6.4 11.3 0.00 0.00 0.00 51 1013.0
20260502224038 21 340 8.0 14.5 0.00 0.00 0.00 52 1013.0
20260502223816 21 25 8.0 14.5 0.00 0.00 0.00 51 1013.3
20260502223033 21 28 8.0 11.3 0.00 0.00 0.00 51 1013.3
20260502222530 21 336 8.0 11.3 0.00 0.00 0.00 51 1013.3
20260502222029 21 359 8.0 14.5 0.00 0.00 0.00 51 1013.4
20260502221533 21 338 8.0 14.5 0.00 0.00 0.00 52 1013.4
20260502221029 21 13 8.0 11.3 0.00 0.00 0.00 54 1013.4
20260502220755 20 359 8.0 12.9 0.00 0.00 0.00 54 1013.7
20260502220255 20 349 9.7 14.5 0.00 0.00 0.00 54 1013.7
20260502215513 20 332 9.7 14.5 0.00 0.00 0.00 56 1013.7
20260502215012 20 330 9.7 14.5 0.00 0.00 0.00 55 1013.9
20260502214510 20 359 6.4 14.5 0.00 0.00 0.00 52 1013.9
20260502214012 20 19 6.4 11.3 0.00 0.00 0.00 54 1013.9
20260502213511 20 359 6.4 11.3 0.00 0.00 0.00 54 1014.2
20260502213006 20 324 6.4 9.7 0.00 0.00 0.00 55 1014.2
20260502212507 20 336 6.4 9.7 0.00 0.00 0.00 55 1014.2
20260502212004 20 15 6.4 11.3 0.00 0.00 0.00 56 1014.4
20260502211504 20 335 6.4 11.3 0.00 0.00 0.00 55 1014.4
20260502211004 19 52 6.4 11.3 0.00 0.00 0.00 55 1014.4
20260502210504 19 34 6.4 11.3 0.00 0.00 0.00 56 1014.4
20260502210001 19 354 6.4 11.3 0.00 0.00 0.00 56 1014.4
20260502205505 19 330 6.4 9.7 0.00 0.00 0.00 58 1014.4
20260502205247 18 321 4.8 8.0 0.00 0.00 0.00 59 1014.5
20260502204505 18 322 6.4 9.7 0.00 0.00 0.00 57 1014.5
20260502204256 18 359 6.4 9.7 0.00 0.00 0.00 59 1014.5
20260502203500 18 322 8.0 11.3 0.00 0.00 0.00 58 1014.7
20260502202959 18 351 8.0 16.1 0.00 0.00 0.00 59 1014.7
20260502202453 18 342 6.4 16.1 0.00 0.00 0.00 58 1014.7
20260502201945 18 335 6.4 12.9 0.00 0.00 0.00 60 1014.9
20260502201444 18 34 9.7 14.5 0.00 0.00 0.00 59 1014.9
20260502200940 18 333 8.0 14.5 0.00 0.00 0.00 59 1014.9
20260502200442 18 14 6.4 12.9 0.00 0.00 0.00 61 1015.0
20260502195940 17 17 6.4 14.5 0.00 0.00 0.00 60 1015.0
20260502195436 17 9 4.8 14.5 0.00 0.00 0.00 61 1015.0
20260502194938 17 359 6.4 9.7 0.00 0.00 0.00 62 1015.1
20260502194437 17 9 8.0 17.7 0.00 0.00 0.00 62 1015.1
20260502193934 17 350 9.7 17.7 0.00 0.00 0.00 62 1015.1
20260502193437 17 21 8.0 16.1 0.00 0.00 0.00 63 1015.3
20260502192933 16 324 8.0 16.1 0.00 0.00 0.00 64 1015.3
20260502192430 16 61 9.7 16.1 0.00 0.00 0.00 67 1015.3
20260502191931 16 33 11.3 19.3 0.00 0.00 0.00 66 1015.5
20260502191429 16 359 9.7 19.3 0.00 0.00 0.00 67 1015.5
20260502190932 16 4 9.7 17.7 0.00 0.00 0.00 67 1015.5
20260502190429 15 345 8.0 16.1 0.00 0.00 0.00 67 1015.7
20260502190218 15 9 6.4 11.3 0.00 0.00 0.00 68 1015.7
20260502185713 15 339 6.4 11.3 0.00 0.00 0.00 70 1015.7
20260502185209 15 9 6.4 9.7 0.00 0.00 0.00 70 1015.9
20260502184651 15 325 4.8 8.0 0.00 0.00 0.00 70 1015.9
20260502183903 14 41 6.4 9.7 0.00 0.00 0.00 70 1015.9
20260502183359 14 337 6.4 11.3 0.00 0.00 0.00 71 1016.0
20260502182848 14 13 4.8 11.3 0.00 0.00 0.00 73 1016.0
20260502182346 13 9 4.8 8.0 0.00 0.00 0.00 74 1016.0
20260502181841 13 315 4.8 8.0 0.00 0.00 0.00 74 1016.1
20260502181340 13 359 6.4 8.0 0.00 0.00 0.00 76 1016.1
20260502180840 13 28 6.4 9.7 0.00 0.00 0.00 77 1016.1
20260502180340 12 344 8.0 9.7 0.00 0.00 0.00 77 1016.3
20260502170330 11 359 6.4 9.7 0.00 0.00 0.00 84 1016.5
20260502170112 11 354 6.4 11.3 0.00 0.00 0.00 84 1016.5
20260502164328 11 335 6.4 9.7 0.00 0.00 0.00 85 1016.5
20260502163821 10 348 6.4 9.7 0.00 0.00 0.00 85 1016.5
20260502163311 10 335 6.4 9.7 0.00 0.00 0.00 86 1016.5
20260502162802 10 338 6.4 8.0 0.00 0.00 0.00 86 1016.5
20260502162304 10 359 6.4 8.0 0.00 0.00 0.00 86 1016.5
20260502161756 10 4 6.4 11.3 0.00 0.00 0.00 86 1016.5
20260502161256 10 359 6.4 11.3 0.00 0.00 0.00 87 1016.5
20260502161034 10 359 6.4 11.3 0.00 0.00 0.00 87 1016.5
20260502160247 10 9 8.0 11.3 0.00 0.00 0.00 88 1016.5
20260502152247 10 337 3.2 6.4 0.00 0.00 0.00 87 1016.5
20260502152031 10 9 1.6 6.4 0.00 0.00 0.00 87 1016.5
20260502151245 10 60 3.2 9.7 0.00 0.00 0.00 87 1016.5
20260502150745 10 59 4.8 9.7 0.00 0.00 0.00 87 1016.5
20260502150233 10 19 3.2 8.0 0.00 0.00 0.00 87 1016.5
20260502130615 10 18 3.2 6.4 0.00 0.00 0.00 87 1016.0
20260502130115 10 17 3.2 6.4 0.00 0.00 0.00 87 1016.0
20260502123602 10 30 3.2 4.8 0.00 0.00 0.00 87 1016.1
20260502123100 10 9 1.6 4.8 0.00 0.00 0.00 87 1016.2
20260502122601 10 25 1.6 4.8 0.00 0.00 0.00 87 1016.2
20260502122101 10 14 3.2 4.8 0.00 0.00 0.00 87 1016.2
20260502121601 10 359 1.6 4.8 0.00 0.00 0.00 87 1016.4
20260502121105 10 328 1.6 3.2 0.00 0.00 0.00 86 1016.4
20260502120834 10 323 1.6 4.8 0.00 0.00 0.00 86 1016.4
20260502115601 10 242 0.0 3.2 0.00 0.00 0.00 86 1016.5
20260502115106 10 242 1.6 3.2 0.00 0.00 0.00 86 1016.5
20260502114606 10 242 1.6 4.8 0.00 0.00 0.00 86 1016.5
20260502114104 10 265 3.2 4.8 0.00 0.00 0.00 86 1016.5
20260502113601 10 258 3.2 4.8 0.00 0.00 0.00 85 1016.5
20260502113102 10 249 3.2 4.8 0.00 0.00 0.00 85 1016.3
20260502112835 10 258 1.6 4.8 0.00 0.00 0.00 85 1016.3
20260502112059 10 161 1.6 4.8 0.00 0.00 0.00 85 1016.0
20260502111555 10 234 3.2 4.8 0.00 0.00 0.00 85 1016.0
20260502111055 10 306 3.2 6.4 0.00 0.00 0.00 85 1016.0
20260502110547 10 324 4.8 6.4 0.00 0.00 0.00 85 1016.1
20260502110045 10 312 3.2 4.8 0.00 0.00 0.00 85 1016.1
20260502105543 10 294 3.2 4.8 0.00 0.00 0.00 84 1016.1
20260502105045 10 306 3.2 6.4 0.00 0.00 0.00 84 1016.7
20260502104825 10 269 3.2 6.4 0.00 0.00 0.00 84 1016.7
20260502104032 10 223 3.2 6.4 0.00 0.00 0.00 83 1016.7
20260502103818 10 181 4.8 8.0 0.00 0.00 0.00 83 1017.0
20260502103032 10 198 6.4 12.9 0.00 0.00 0.00 83 1017.0
20260502102530 10 166 6.4 12.9 0.00 0.00 0.00 83 1017.0
20260502102035 10 157 6.4 9.7 0.00 0.00 0.00 83 1017.0
20260502101533 10 211 6.4 9.7 0.00 0.00 0.00 83 1017.0
20260502101029 10 178 6.4 9.7 0.00 0.00 0.00 84 1017.0
20260502100529 10 161 3.2 9.7 0.00 0.00 0.00 84 1016.5
20260502091450 10 55 1.6 4.8 0.00 0.00 0.00 83 1016.2
20260502090951 10 55 3.2 4.8 0.00 0.00 0.00 83 1016.2
20260502090449 10 16 3.2 4.8 0.00 0.00 0.00 83 1016.4
20260502071335 11 144 4.8 9.7 0.00 0.00 0.00 77 1016.1
20260502070833 11 170 4.8 8.0 0.00 0.00 0.00 77 1016.1
20260502070333 11 148 3.2 8.0 0.00 0.00 0.00 76 1016.1
20260502065833 11 159 3.2 8.0 0.00 0.00 0.00 76 1016.1
20260502065613 11 179 1.6 4.8 0.00 0.00 0.00 77 1016.1
20260502064831 12 317 1.6 4.8 0.00 0.00 0.00 78 1016.0
20260502064334 12 296 1.6 3.2 0.00 0.00 0.00 77 1016.0
20260502063830 12 225 1.6 4.8 0.00 0.00 0.00 75 1016.0
20260502063331 12 178 3.2 6.4 0.00 0.00 0.00 75 1016.0
20260502063105 12 158 3.2 6.4 0.00 0.00 0.00 75 1016.0
20260502062324 12 148 3.2 6.4 0.00 0.00 0.00 75 1016.0
20260502061820 12 165 4.8 8.0 0.00 0.00 0.00 74 1016.0
20260502061603 12 159 4.8 8.0 0.00 0.00 0.00 74 1016.0
20260502060820 12 182 3.2 8.0 0.00 0.00 0.00 75 1016.0
20260502060322 12 151 1.6 6.4 0.00 0.00 0.00 76 1016.0
20260502055817 12 241 1.6 4.8 0.00 0.00 0.00 76 1016.0
20260502055305 12 313 1.6 3.2 0.00 0.00 0.00 75 1016.0
20260502054806 12 318 1.6 3.2 0.00 0.00 0.00 75 1016.0
20260502054306 12 318 3.2 4.8 0.00 0.00 0.00 75 1016.0
20260502053801 12 309 3.2 6.4 0.00 0.00 0.00 74 1016.0
20260502053259 12 285 3.2 6.4 0.00 0.00 0.00 75 1016.0
20260502052747 12 346 3.2 6.4 0.00 0.00 0.00 74 1016.0
20260502052233 12 335 3.2 4.8 0.00 0.00 0.00 74 1016.0
20260502051732 12 32 3.2 6.4 0.00 0.00 0.00 75 1016.0
20260502051234 12 359 4.8 6.4 0.00 0.00 0.00 74 1016.0
20260502050733 13 9 3.2 4.8 0.00 0.00 0.00 74 1016.0
20260502050232 13 4 3.2 6.4 0.00 0.00 0.00 74 1016.0
20260502045729 13 346 4.8 9.7 0.00 0.00 0.00 73 1016.0
20260502045229 13 334 3.2 9.7 0.00 0.00 0.00 74 1016.0
20260502045018 13 323 3.2 8.0 0.00 0.00 0.00 74 1015.8
20260502044229 13 355 3.2 8.0 0.00 0.00 0.00 74 1015.8
20260502043733 13 13 4.8 9.7 0.00 0.00 0.00 74 1015.8
20260502043221 13 4 4.8 9.7 0.00 0.00 0.00 75 1015.5
20260502042734 13 29 6.4 16.1 0.00 0.00 0.00 75 1015.5
20260502041705 13 16 12.9 19.3 0.00 0.00 0.00 74 1015.4
20260502041206 13 359 12.9 20.9 0.00 0.00 0.00 74 1015.4
20260502040953 14 25 14.5 20.9 0.00 0.00 0.00 73 1015.4
20260502040451 14 32 12.9 19.3 0.00 0.00 0.00 72 1015.0
20260502035703 14 30 11.3 19.3 0.00 0.00 0.00 72 1015.0
20260502035201 14 26 12.9 20.9 0.00 0.00 0.00 71 1015.0
20260502034704 15 13 14.5 20.9 0.00 0.00 0.00 71 1014.8
20260502034159 15 20 16.1 20.9 0.00 0.00 0.00 70 1014.8
20260502033648 15 27 14.5 20.9 0.00 0.00 0.00 69 1014.8
20260502033132 15 26 12.9 20.9 0.00 0.00 0.00 69 1014.5
20260502032630 15 16 12.9 17.7 0.00 0.00 0.00 68 1014.5
20260502032130 15 359 12.9 17.7 0.00 0.00 0.00 67 1014.5